EW9763 Weather Reports


time (UTC)temp
F
wind
direction
speed
knots
gust
knots
rain 1hr
in
rain 24hr
in
rain mn
in
humidity
%
barometer
mb
20260906161356 75 96 2.6 7.8 0.00 0.00 0.00 73 1020.9
20260906160855 74 131 3.5 7.8 0.00 0.00 0.00 75 1020.9
20260906160356 74 98 4.3 8.7 0.00 0.00 0.00 74 1020.9
20260906155856 74 99 3.5 8.7 0.00 0.00 0.00 74 1020.9
20260906155353 75 88 2.6 7.8 0.00 0.00 0.00 74 1020.9
20260906154850 75 76 2.6 7.8 0.00 0.00 0.00 74 1020.9
20260906154351 75 98 1.7 5.2 0.00 0.00 0.00 75 1020.9
20260906153853 75 161 3.5 10.4 0.00 0.00 0.00 76 1021.0
20260906153622 74 143 3.5 10.4 0.00 0.00 0.00 78 1021.1
20260906152853 74 161 2.6 9.6 0.00 0.00 0.00 77 1021.0
20260906152352 73 107 3.5 7.0 0.00 0.00 0.00 80 1021.0
20260906151852 73 103 4.3 7.0 0.00 0.00 0.00 78 1021.1
20260906151347 73 92 3.5 7.0 0.00 0.00 0.00 78 1021.1
20260906151117 74 95 2.6 7.0 0.00 0.00 0.00 79 1021.0
20260906150349 73 113 2.6 6.1 0.00 0.00 0.00 80 1021.0
20260906145847 73 134 2.6 7.8 0.00 0.00 0.00 79 1020.9
20260906145344 73 107 2.6 7.8 0.00 0.00 0.00 79 1020.8
20260906144845 73 131 3.5 7.0 0.00 0.00 0.00 81 1020.7
20260906144346 73 92 3.5 7.0 0.00 0.00 0.00 81 1020.7
20260906143839 72 115 3.5 7.0 0.00 0.00 0.00 81 1020.8
20260906143335 72 92 3.5 7.0 0.00 0.00 0.00 81 1020.8
20260906142837 72 100 3.5 7.0 0.00 0.00 0.00 82 1020.8
20260906142607 71 84 4.3 7.0 0.00 0.00 0.00 83 1020.8
20260906142106 72 89 3.5 6.1 0.00 0.00 0.00 85 1020.8
20260906141335 71 86 1.7 3.5 0.00 0.00 0.00 86 1020.8
20260906140836 71 107 1.7 3.5 0.00 0.00 0.00 85 1020.9
20260906140331 71 92 1.7 3.5 0.00 0.00 0.00 86 1021.0
20260906135835 71 98 0.9 2.6 0.00 0.00 0.00 86 1021.1
20260906135831 71 101 1.7 2.6 0.00 0.00 0.00 86 1021.0
20260906135101 70 87 0.9 3.5 0.00 0.00 0.00 87 1021.0
20260906134332 70 87 0.0 3.5 0.00 0.00 0.00 87 1021.0
20260906133832 69 81 0.9 2.6 0.00 0.00 0.00 89 1020.9
20260906133327 69 82 0.9 2.6 0.00 0.00 0.00 89 1020.8
20260906132829 69 82 0.9 2.6 0.00 0.00 0.00 91 1020.8
20260906132327 68 79 0.9 2.6 0.00 0.00 0.00 93 1020.8
20260906131827 67 79 0.0 2.6 0.00 0.00 0.00 95 1020.8
20260906131328 66 78 0.9 2.6 0.00 0.00 0.00 95 1020.8
20260906130828 66 79 0.9 3.5 0.00 0.00 0.00 97 1020.6
20260906130323 65 84 0.9 3.5 0.00 0.00 0.00 97 1020.6
20260906125825 65 84 0.9 3.5 0.00 0.00 0.00 97 1020.6
20260906125324 64 71 0.9 2.6 0.00 0.00 0.00 97 1020.6
20260906124822 63 32 1.7 3.5 0.00 0.00 0.00 97 1020.7
20260906124553 63 44 1.7 3.5 0.00 0.00 0.00 97 1020.6
20260906124054 62 20 1.7 3.5 0.00 0.00 0.00 97 1020.5
20260906123319 62 18 1.7 4.3 0.00 0.00 0.00 97 1020.5
20260906122819 62 28 1.7 4.3 0.00 0.00 0.00 97 1020.4
20260906122320 62 24 0.9 4.3 0.00 0.00 0.00 97 1020.2
20260906121819 61 11 0.9 2.6 0.00 0.00 0.00 97 1020.3
20260906121318 61 12 0.9 2.6 0.00 0.00 0.00 97 1020.3
20260906120820 60 338 0.9 2.6 0.00 0.00 0.00 96 1020.2
20260906120546 60 340 0.9 1.7 0.00 0.00 0.00 96 1020.2
20260906120044 60 340 0.9 1.7 0.00 0.00 0.00 96 1020.1
20260906115313 60 340 1.7 2.6 0.00 0.00 0.00 96 1020.1
20260906114808 60 340 0.9 2.6 0.00 0.00 0.00 96 1020.0
20260906114310 60 331 0.9 1.7 0.00 0.00 0.00 96 1019.6
20260906114306 60 337 0.9 2.6 0.00 0.00 0.00 96 1019.9
20260906113536 60 335 0.0 2.6 0.00 0.00 0.00 96 1019.5
20260906112805 60 350 0.9 2.6 0.00 0.00 0.00 96 1019.5
20260906112306 60 355 0.9 1.7 0.00 0.00 0.00 96 1019.4
20260906111800 60 24 0.9 1.7 0.00 0.00 0.00 96 1019.4
20260906111529 60 30 0.9 2.6 0.00 0.00 0.00 96 1019.3
20260906110759 60 33 0.9 2.6 0.00 0.00 0.00 96 1019.3
20260906110529 60 34 0.9 3.5 0.00 0.00 0.00 96 1019.2
20260906105756 60 33 0.9 3.5 0.00 0.01 0.00 96 1019.3
20260906105257 60 11 0.9 2.6 0.00 0.01 0.00 95 1019.2
20260906105023 60 11 1.7 3.5 0.00 0.01 0.00 95 1019.3
20260906104522 60 12 0.9 3.5 0.00 0.01 0.00 95 1019.3
20260906103751 60 37 1.7 3.5 0.00 0.01 0.00 95 1019.2
20260906103250 60 37 1.7 4.3 0.00 0.01 0.00 96 1019.2
20260906103022 60 34 1.7 4.3 0.00 0.01 0.00 95 1019.2
20260906102251 60 13 1.7 3.5 0.00 0.01 0.00 95 1019.2
20260906101747 60 15 0.9 3.5 0.00 0.01 0.00 95 1019.4
20260906101246 60 17 0.9 2.6 0.00 0.01 0.00 95 1019.3
20260906100746 60 17 0.9 2.6 0.00 0.01 0.00 95 1019.4
20260906100244 60 19 1.7 1.7 0.00 0.01 0.00 95 1019.4
20260906095741 60 19 1.7 2.6 0.00 0.01 0.00 95 1019.4
20260906095241 60 20 1.7 2.6 0.00 0.01 0.00 95 1019.3
20260906094736 60 21 0.9 2.6 0.00 0.01 0.00 95 1019.2
20260906094236 60 21 0.9 2.6 0.00 0.01 0.00 95 1019.2
20260906093734 60 21 0.0 2.6 0.00 0.01 0.00 95 1019.1
20260906093505 60 22 0.9 2.6 0.00 0.01 0.00 95 1019.1
20260906093345 60 22 1.7 4.3 0.00 0.01 0.00 95 1019.1
20260906092230 60 9 2.6 4.3 0.00 0.01 0.00 95 1019.1
20260906091727 60 11 1.7 3.5 0.00 0.01 0.00 94 1019.1
20260906091224 60 25 0.9 3.5 0.00 0.01 0.00 94 1019.1
20260906090957 60 31 0.0 2.6 0.00 0.01 0.00 94 1019.0
20260906090225 60 32 0.0 0.0 0.00 0.01 0.00 94 1018.9
20260906085722 60 11 0.0 0.0 0.00 0.01 0.00 94 1019.0
20260906085223 60 5 0.0 1.7 0.00 0.01 0.00 94 1019.0
20260906084721 60 5 0.9 1.7 0.00 0.01 0.00 94 1019.0
20260906084220 60 5 0.0 1.7 0.00 0.01 0.00 94 1019.0
20260906083721 60 5 0.0 0.0 0.00 0.01 0.00 94 1019.0
20260906083219 60 5 0.0 1.7 0.00 0.01 0.00 94 1019.0
20260906082716 60 5 0.0 1.7 0.00 0.01 0.00 94 1018.9
20260906082217 61 5 0.9 2.6 0.00 0.01 0.00 94 1018.9
20260906081714 61 5 0.9 2.6 0.00 0.01 0.00 94 1018.8
20260906081212 61 5 0.0 1.7 0.00 0.01 0.00 94 1018.8
20260906080714 61 5 0.0 1.7 0.00 0.01 0.00 94 1018.8
20260906080444 61 5 0.9 2.6 0.00 0.01 0.00 94 1018.8
20260906075710 61 9 1.7 2.6 0.00 0.01 0.00 94 1018.8
20260906075210 61 9 1.7 4.3 0.00 0.01 0.00 94 1018.9
20260906074940 61 9 1.7 4.3 0.00 0.01 0.00 94 1018.9
20260906074208 61 19 1.7 4.3 0.00 0.01 0.00 94 1019.0
20260906073711 61 340 2.6 3.5 0.00 0.01 0.00 94 1019.0
20260906073208 61 340 1.7 3.5 0.00 0.01 0.00 94 1019.1
20260906072704 61 342 1.7 2.6 0.00 0.01 0.00 94 1019.1
20260906072436 61 342 2.6 3.5 0.00 0.01 0.00 94 1019.0
20260906071929 61 344 1.7 3.5 0.00 0.01 0.00 94 1018.9
20260906071158 61 344 1.7 2.6 0.00 0.01 0.00 94 1018.9
20260906070930 61 355 2.6 3.5 0.00 0.01 0.00 94 1018.9
20260906070158 61 355 2.6 3.5 0.00 0.01 0.00 94 1018.8
20260906065930 61 0 2.6 3.5 0.00 0.01 0.00 94 1018.7
20260906065159 61 5 2.6 3.5 0.00 0.01 0.00 95 1018.7
20260906064653 61 5 2.6 3.5 0.00 0.01 0.00 95 1018.7
20260906064151 61 5 2.6 3.5 0.00 0.01 0.00 95 1018.7
20260906063649 61 21 1.7 3.5 0.00 0.01 0.00 94 1018.7
20260906063417 62 22 1.7 2.6 0.00 0.01 0.00 94 1018.6
20260906062647 62 22 0.9 2.6 0.00 0.01 0.00 94 1018.7
20260906062142 62 22 0.9 2.6 0.00 0.01 0.00 94 1018.6
20260906061914 62 22 0.9 1.7 0.00 0.01 0.00 94 1018.6
20260906061144 62 30 0.9 1.7 0.00 0.01 0.00 94 1018.6
20260906060642 62 30 0.9 1.7 0.00 0.01 0.00 94 1018.7
20260906060140 62 30 0.0 1.7 0.00 0.01 0.00 94 1018.7
20260906055642 62 30 0.9 1.7 0.00 0.01 0.00 94 1018.5
20260906055135 61 30 0.9 1.7 0.00 0.01 0.00 94 1018.5
20260906054633 62 30 1.7 1.7 0.00 0.01 0.00 93 1018.5
20260906054401 62 30 1.7 2.6 0.00 0.01 0.00 93 1018.5
20260906053628 62 30 1.7 2.6 0.00 0.01 0.00 93 1018.5
20260906053130 62 30 1.7 2.6 0.00 0.01 0.00 93 1018.4
20260906052622 62 30 0.9 2.6 0.00 0.01 0.00 93 1018.3
20260906052121 62 30 0.0 1.7 0.00 0.01 0.00 92 1018.2
20260906051618 62 30 0.0 0.0 0.00 0.01 0.00 93 1018.2
20260906051116 63 32 0.0 1.7 0.00 0.01 0.00 92 1018.0
20260906050617 63 32 0.0 1.7 0.00 0.01 0.00 93 1018.1
20260906050114 63 32 0.0 1.7 0.00 0.01 0.00 93 1018.1
20260906045614 63 32 0.0 1.7 0.00 0.01 0.01 93 1018.0
20260906045113 63 32 0.0 1.7 0.00 0.01 0.01 92 1018.0
20260906044610 63 32 0.0 0.9 0.00 0.01 0.01 92 1018.1
20260906044342 63 32 0.0 0.0 0.00 0.01 0.01 92 1018.1
20260906043609 63 34 0.0 0.0 0.00 0.01 0.01 92 1018.1
20260906043104 63 34 0.0 0.0 0.00 0.01 0.01 91 1018.1
20260906042602 63 34 0.0 0.0 0.00 0.01 0.01 91 1018.1
20260906042102 63 41 0.0 0.0 0.00 0.01 0.01 91 1018.1
20260906041603 63 41 0.0 0.0 0.00 0.01 0.01 91 1018.1
20260906041100 63 41 0.0 0.0 0.00 0.01 0.01 91 1017.9
20260906040602 63 41 0.0 0.0 0.00 0.01 0.01 90 1017.9
20260906040053 64 41 0.0 0.9 0.00 0.01 0.01 90 1017.9
20260906035553 64 41 0.0 0.9 0.00 0.01 0.01 90 1017.9
20260906035050 64 41 0.0 0.0 0.00 0.01 0.01 90 1017.9
20260906034548 64 49 0.0 0.0 0.00 0.01 0.01 90 1017.9
20260906034049 64 49 0.0 0.0 0.00 0.01 0.01 90 1017.8
20260906033544 64 50 0.0 0.0 0.00 0.01 0.01 90 1017.7
20260906033045 65 50 0.0 0.0 0.00 0.01 0.01 90 1017.8
20260906032542 65 50 0.0 0.9 0.00 0.01 0.01 89 1017.7
20260906032043 65 50 0.0 0.9 0.00 0.01 0.01 89 1017.7
20260906031539 66 54 0.0 0.0 0.00 0.01 0.01 89 1017.6
20260906031040 66 54 0.0 0.0 0.00 0.01 0.01 88 1017.6
20260906030539 66 54 0.0 0.0 0.00 0.01 0.01 88 1017.7
20260906030037 67 54 0.0 0.0 0.00 0.01 0.01 88 1017.6
20260906025539 67 54 0.0 0.0 0.00 0.01 0.01 87 1017.6
20260906025036 67 54 0.0 0.0 0.00 0.01 0.01 86 1017.6
20260906024534 67 54 0.0 0.0 0.00 0.01 0.01 86 1017.6
20260906024035 67 54 0.0 0.9 0.00 0.01 0.01 85 1017.7
20260906023534 67 54 0.0 1.7 0.00 0.01 0.01 84 1017.7
20260906023302 67 54 0.0 1.7 0.00 0.01 0.01 84 1017.7
20260906022532 67 54 0.0 1.7 0.00 0.01 0.01 84 1017.7
20260906022031 68 54 0.0 1.7 0.00 0.01 0.01 83 1017.7
20260906021802 68 54 0.9 2.6 0.00 0.01 0.01 83 1017.6
20260906021028 68 54 0.9 2.6 0.00 0.01 0.01 84 1017.6
20260906020531 68 53 0.9 1.7 0.00 0.01 0.01 84 1017.7
20260906020527 68 53 0.9 1.7 0.00 0.01 0.01 84 1017.7
20260906015526 69 53 0.9 1.7 0.00 0.01 0.01 84 1017.6
20260906015257 69 53 0.9 2.6 0.00 0.01 0.01 83 1017.5
20260906014527 69 53 0.9 2.6 0.00 0.01 0.01 83 1017.6
20260906014022 69 51 0.9 3.5 0.00 0.01 0.01 84 1017.6
20260906013523 69 51 0.9 3.5 0.00 0.01 0.01 83 1017.5
20260906013254 69 51 0.9 2.6 0.00 0.01 0.01 84 1017.4
20260906012522 70 50 0.9 2.6 0.00 0.01 0.01 84 1017.4
20260906012021 70 50 1.7 3.5 0.00 0.01 0.01 84 1017.4
20260906011522 70 53 0.9 3.5 0.00 0.01 0.01 83 1017.4
20260906011017 70 37 0.0 2.6 0.00 0.01 0.01 83 1017.4
20260906010519 70 63 0.9 2.6 0.00 0.01 0.01 83 1017.4
20260906010250 71 63 0.9 2.6 0.00 0.01 0.01 83 1017.3
20260906005518 71 63 0.9 1.7 0.00 0.01 0.01 82 1017.2
20260906005249 71 63 0.9 2.6 0.00 0.01 0.01 82 1017.1
20260906004517 71 63 0.9 2.6 0.00 0.01 0.01 82 1017.1
20260906004251 71 64 1.7 3.5 0.00 0.01 0.01 82 1017.1
20260906003751 71 64 1.7 4.3 0.00 0.01 0.01 81 1017.0
20260906003018 72 62 1.7 4.3 0.00 0.01 0.01 81 1017.0
20260906002519 72 68 1.7 3.5 0.00 0.01 0.01 81 1017.0
20260906002019 72 67 1.7 3.5 0.00 0.01 0.01 81 1017.0
20260906001513 73 46 0.9 3.5 0.00 0.01 0.01 81 1017.0
20260906001013 73 46 0.9 4.3 0.00 0.01 0.01 80 1017.1
20260906000514 73 42 1.7 4.3 0.00 0.01 0.01 79 1017.1
20260906000013 73 47 1.7 4.3 0.00 0.01 0.01 79 1017.0
20260905235515 74 24 2.6 6.1 0.00 0.01 0.01 79 1017.0
20260905235245 74 58 2.6 6.1 0.00 0.01 0.01 79 1017.0
20260905234514 74 355 1.7 6.1 0.00 0.01 0.01 78 1017.0
20260905234012 74 32 1.7 3.5 0.00 0.01 0.01 78 1016.9
20260905233512 74 50 1.7 8.7 0.00 0.01 0.01 78 1016.9
20260905233007 74 18 2.6 8.7 0.00 0.01 0.01 77 1017.0
20260905232508 75 74 2.6 7.8 0.00 0.01 0.01 77 1017.0
20260905232008 75 40 3.5 7.8 0.00 0.01 0.01 77 1017.2
20260905231508 75 15 3.5 7.8 0.00 0.01 0.01 76 1017.2
20260905231007 75 56 4.3 7.8 0.00 0.01 0.01 76 1017.2
20260905230508 75 11 4.3 7.8 0.00 0.01 0.01 76 1017.1
20260905230007 75 23 3.5 7.8 0.00 0.01 0.01 77 1017.2
20260905225501 75 35 4.3 12.2 0.00 0.01 0.01 77 1017.1
20260905225002 75 27 4.3 12.2 0.00 0.01 0.01 77 1017.0
20260905224502 75 30 2.6 7.8 0.00 0.01 0.01 77 1017.0
20260905224002 75 355 2.6 7.0 0.00 0.01 0.01 77 1017.0
20260905223503 75 106 2.6 7.8 0.00 0.01 0.01 77 1016.8
20260905223002 75 5 3.5 8.7 0.00 0.01 0.01 78 1016.8
20260905222504 75 0 4.3 8.7 0.00 0.01 0.01 78 1016.8
20260905221956 75 55 3.5 8.7 0.00 0.01 0.01 78 1016.8
20260905221453 75 30 3.5 7.0 0.00 0.01 0.01 78 1016.8
20260905220954 75 81 3.5 10.4 0.00 0.01 0.01 78 1016.8
20260905220454 75 84 3.5 10.4 0.00 0.01 0.01 78 1016.9
20260905215954 75 38 3.5 7.8 0.00 0.01 0.01 79 1016.9
20260905215454 75 50 4.3 8.7 0.00 0.01 0.01 80 1016.9
20260905214951 75 0 3.5 8.7 0.00 0.01 0.01 80 1016.9
20260905214455 74 65 2.6 7.0 0.00 0.01 0.01 82 1017.0
20260905214450 75 77 2.6 7.8 0.00 0.01 0.01 82 1017.0
20260905213447 74 61 2.6 7.0 0.00 0.01 0.01 82 1017.0
20260905212948 74 5 2.6 7.8 0.00 0.01 0.01 83 1017.1
20260905212447 74 32 2.6 7.8 0.00 0.01 0.01 83 1017.0
20260905212216 74 68 1.7 7.0 0.00 0.01 0.01 83 1017.1
20260905211446 74 80 1.7 4.3 0.00 0.01 0.01 84 1017.1
20260905210943 74 40 2.6 6.1 0.00 0.01 0.01 84 1017.2
20260905210443 74 17 2.6 6.1 0.00 0.01 0.01 84 1017.2
20260905205941 74 53 2.6 7.0 0.00 0.01 0.01 84 1017.1
20260905205440 74 27 2.6 7.0 0.00 0.01 0.01 83 1017.1
20260905204939 74 79 2.6 7.0 0.00 0.01 0.01 83 1017.0
20260905204435 74 37 2.6 7.0 0.00 0.01 0.01 83 1017.0
20260905203933 74 38 1.7 6.1 0.00 0.01 0.01 84 1016.9
20260905203431 74 60 1.7 5.2 0.00 0.01 0.01 84 1016.9
20260905202927 74 53 2.6 5.2 0.00 0.01 0.01 84 1016.9
20260905202428 74 37 3.5 7.8 0.00 0.01 0.01 84 1016.9
20260905201921 74 35 3.5 7.8 0.00 0.01 0.01 84 1016.9
20260905201422 74 0 2.6 7.0 0.00 0.01 0.01 84 1016.9
20260905200921 74 66 2.6 7.0 0.00 0.01 0.01 85 1016.9
20260905200421 74 22 1.7 6.1 0.00 0.01 0.01 85 1016.9
20260905195922 74 72 1.7 5.2 0.00 0.01 0.01 85 1017.0
20260905195421 74 26 2.6 5.2 0.00 0.01 0.01 85 1017.0
20260905194915 74 28 2.6 5.2 0.00 0.01 0.01 85 1017.0
20260905194415 74 14 2.6 7.0 0.00 0.01 0.01 85 1017.0
20260905193915 74 19 3.5 7.8 0.00 0.01 0.01 84 1017.0
20260905193646 74 50 3.5 7.8 0.00 0.01 0.01 85 1017.0
20260905192915 74 28 2.6 7.0 0.00 0.01 0.01 86 1017.1
20260905192417 74 33 1.7 5.2 0.00 0.01 0.01 86 1017.1
20260905191911 74 101 2.6 5.2 0.00 0.01 0.01 87 1017.0
20260905191410 74 40 2.6 5.2 0.00 0.01 0.01 87 1017.0
20260905190906 74 351 2.6 5.2 0.00 0.01 0.01 88 1017.1
20260905190403 73 86 2.6 6.1 0.00 0.01 0.01 88 1017.1
20260905190135 73 47 2.6 6.1 0.00 0.01 0.01 88 1017.1
20260905185359 73 76 1.7 6.1 0.00 0.01 0.01 88 1017.0
20260905184900 73 28 2.6 7.0 0.00 0.01 0.01 88 1017.2
20260905184358 73 52 3.5 7.0 0.00 0.01 0.01 88 1017.2
20260905183858 73 34 3.5 7.8 0.00 0.01 0.01 87 1017.2
20260905183357 73 12 3.5 7.8 0.00 0.01 0.01 88 1017.3
20260905182858 73 34 2.6 7.0 0.00 0.01 0.01 87 1017.3
20260905182354 73 46 2.6 7.0 0.00 0.01 0.01 87 1017.3
20260905181853 73 51 3.5 7.0 0.00 0.01 0.01 88 1017.2
20260905181354 74 98 4.3 7.0 0.00 0.01 0.01 87 1017.1
20260905180854 74 100 4.3 7.8 0.00 0.01 0.01 86 1017.1
20260905180351 74 84 3.5 7.8 0.00 0.01 0.01 87 1017.1
20260905175854 74 74 3.5 7.8 0.00 0.01 0.01 87 1017.0
20260905175346 74 49 3.5 7.8 0.00 0.01 0.01 87 1017.1
20260905174845 74 36 3.5 7.8 0.00 0.01 0.01 88 1017.1
20260905174346 73 64 4.3 7.8 0.00 0.01 0.01 87 1017.1
20260905173845 73 99 3.5 7.8 0.00 0.01 0.01 87 1017.1
20260905173345 73 90 3.5 7.8 0.00 0.01 0.01 88 1017.1
20260905172846 73 47 3.5 7.8 0.00 0.01 0.01 88 1017.1
20260905172612 73 69 4.3 8.7 0.00 0.01 0.01 88 1017.2
20260905171839 73 40 3.5 8.7 0.00 0.01 0.01 88 1017.2
20260905171339 73 61 3.5 7.0 0.00 0.01 0.01 89 1017.2
20260905170838 73 72 3.5 7.8 0.00 0.01 0.01 89 1017.2
20260905170337 73 63 2.6 7.8 0.00 0.01 0.01 89 1017.2
20260905165838 73 46 1.7 7.0 0.00 0.01 0.01 90 1017.4
20260905165336 72 5 2.6 7.8 0.00 0.01 0.01 90 1017.4
20260905165107 72 44 3.5 7.8 0.00 0.01 0.01 90 1017.5
20260905164335 72 62 3.5 9.6 0.00 0.01 0.01 91 1017.4
20260905163837 72 30 2.6 9.6 0.00 0.01 0.01 91 1017.4
20260905163335 72 94 2.6 7.8 0.00 0.01 0.01 91 1017.2
20260905162833 72 39 2.6 7.8 0.00 0.01 0.01 91 1017.2
20260905162334 72 46 2.6 5.2 0.00 0.01 0.01 92 1017.1
20260905161828 72 49 2.6 5.2 0.00 0.01 0.01 92 1017.3